Satellite: NOAA-11 Catalog number: 19531 Epoch time: 13227.42178014 Element set: 471 Inclination: 098.7087 deg RA of node: 309.0516 deg Eccentricity: 0.0012371 Arg of perigee: 093.8958 deg Mean anomaly: 318.5259 deg Mean motion: 14.15024495 rev/day Decay rate: 3.9e-07 rev/day^2 Epoch rev: 28450 Checksum: 304
Satellite: NOAA-12 Catalog number: 21263 Epoch time: 13227.50867777 Element set: 938 Inclination: 098.6948 deg RA of node: 252.4172 deg Eccentricity: 0.0014543 Arg of perigee: 051.5397 deg Mean anomaly: 108.1792 deg Mean motion: 14.25580819 rev/day Decay rate: 4.7e-07 rev/day^2 Epoch rev: 15700 Checksum: 319
Satellite: MET-3/5 Catalog number: 21655 Epoch time: 13227.42858846 Element set: 760 Inclination: 082.5548 deg RA of node: 212.4336 deg Eccentricity: 0.0012737 Arg of perigee: 347.3572 deg Mean anomaly: 012.7229 deg Mean motion: 13.17050342 rev/day Decay rate: -9.2e-07 rev/day^2 Epoch rev: 5773 Checksum: 298
Satellite: MET-2/21 Catalog number: 22782 Epoch time: 13227.48276405 Element set: 817 Inclination: 082.5467 deg RA of node: 055.8692 deg Eccentricity: 0.0023090 Arg of perigee: 045.9197 deg Mean anomaly: 345.6323 deg Mean motion: 13.83710058 rev/day Decay rate: 3.6e-07 rev/day^2 Epoch rev: 784 Checksum: 310
Satellite: OKEAN-4 Catalog number: 23317 Epoch time: 13227.15920139 Element set: 296 Inclination: 082.5418 deg RA of node: 354.5894 deg Eccentricity: 0.0021467 Arg of perigee: 035.5381 deg Mean anomaly: 317.2640 deg Mean motion: 14.84582022 rev/day Decay rate: 6.71e-06 rev/day^2 Epoch rev: 1768 Checksum: 298
Satellite: NOAA-14 Catalog number: 23455 Epoch time: 13227.36963975 Element set: 417 Inclination: 098.8012 deg RA of node: 310.9070 deg Eccentricity: 0.0009685 Arg of perigee: 183.3197 deg Mean anomaly: 218.4475 deg Mean motion: 14.13916063 rev/day Decay rate: 5.9e-07 rev/day^2 Epoch rev: 96073 Checksum: 322
Satellite: NOAA-15 Catalog number: 25338 Epoch time: 13227.87888878 Element set: 839 Inclination: 098.7291 deg RA of node: 217.7690 deg Eccentricity: 0.0009943 Arg of perigee: 320.4362 deg Mean anomaly: 039.6580 deg Mean motion: 14.25254452 rev/day Decay rate: 1.21e-06 rev/day^2 Epoch rev: 79335 Checksum: 343
Satellite: RESURS Catalog number: 25394 Epoch time: 13227.45806975 Element set: 445 Inclination: 098.3680 deg RA of node: 200.4733 deg Eccentricity: 0.0002609 Arg of perigee: 089.1237 deg Mean anomaly: 070.1312 deg Mean motion: 14.24333952 rev/day Decay rate: -4.4e-07 rev/day^2 Epoch rev: 78479 Checksum: 299
Satellite: FENGYUN1 Catalog number: 25730 Epoch time: 13226.49145635 Element set: 939 Inclination: 098.8814 deg RA of node: 185.2983 deg Eccentricity: 0.0023980 Arg of perigee: 244.2477 deg Mean anomaly: 210.2318 deg Mean motion: 14.10598671 rev/day Decay rate: 3.96e-06 rev/day^2 Epoch rev: 73426 Checksum: 324
Satellite: OKEAN-0 Catalog number: 25860 Epoch time: 13227.43522346 Element set: 20 Inclination: 097.9963 deg RA of node: 189.1116 deg Eccentricity: 0.0001008 Arg of perigee: 080.7205 deg Mean anomaly: 075.9098 deg Mean motion: 14.74665919 rev/day Decay rate: 3.38e-06 rev/day^2 Epoch rev: 75708 Checksum: 309
Satellite: NOAA-16 Catalog number: 26536 Epoch time: 13227.25277748 Element set: 324 Inclination: 099.0375 deg RA of node: 280.5883 deg Eccentricity: 0.0009764 Arg of perigee: 333.2955 deg Mean anomaly: 068.0266 deg Mean motion: 14.12905843 rev/day Decay rate: 1.29e-06 rev/day^2 Epoch rev: 66491 Checksum: 331
Satellite: NOAA-17 Catalog number: 27453 Epoch time: 13227.50511925 Element set: 235 Inclination: 098.3129 deg RA of node: 238.4419 deg Eccentricity: 0.0011290 Arg of perigee: 358.1574 deg Mean anomaly: 155.1256 deg Mean motion: 14.24610652 rev/day Decay rate: 6.6e-07 rev/day^2 Epoch rev: 57916 Checksum: 298
Satellite: NOAA-18 Catalog number: 28654 Epoch time: 13227.48151075 Element set: 722 Inclination: 099.1058 deg RA of node: 196.5686 deg Eccentricity: 0.0015036 Arg of perigee: 046.0938 deg Mean anomaly: 100.5041 deg Mean motion: 14.11849441 rev/day Decay rate: 2.60e-06 rev/day^2 Epoch rev: 42442 Checksum: 291
Satellite: NOAA-19 Catalog number: 33591 Epoch time: 13227.44138796 Element set: 904 Inclination: 098.9063 deg RA of node: 169.0483 deg Eccentricity: 0.0012949 Arg of perigee: 261.8607 deg Mean anomaly: 236.1934 deg Mean motion: 14.11538320 rev/day Decay rate: 1.0e-07 rev/day^2 Epoch rev: 23285 Checksum: 310
/EX SB KEPS @ AMSAT $ORB13227.M Orbital Elements 13227.MISC
HR AMSAT ORBITAL ELEMENTS FOR MANNED AND MISCELLANEOUS SATELLITES FROM WA5QGD FORT WORTH,TX August 15, 2013 BID: ORB13227.M TO ALL RADIO AMATEURS BT
Satellite: HUBBLE Catalog number: 20580 Epoch time: 13227.12843634 Element set: 304 Inclination: 028.4692 deg RA of node: 246.3765 deg Eccentricity: 0.0002949 Arg of perigee: 260.5646 deg Mean anomaly: 161.9577 deg Mean motion: 15.03834389 rev/day Decay rate: 1.256e-05 rev/day^2 Epoch rev: 7857 Checksum: 314
Satellite: ISS Catalog number: 25544 Epoch time: 13227.87792191 Element set: 399 Inclination: 051.6496 deg RA of node: 172.5706 deg Eccentricity: 0.0003723 Arg of perigee: 315.6984 deg Mean anomaly: 104.5353 deg Mean motion: 15.50304145 rev/day Decay rate: 6.348e-05 rev/day^2 Epoch rev: 84396 Checksum: 318
Satellite: CO-58 Catalog number: 28895 Epoch time: 13226.63171195 Element set: 547 Inclination: 097.8635 deg RA of node: 079.0849 deg Eccentricity: 0.0016283 Arg of perigee: 255.9722 deg Mean anomaly: 103.9670 deg Mean motion: 14.61192108 rev/day Decay rate: 4.80e-06 rev/day^2 Epoch rev: 41547 Checksum: 337
Satellite: FALCON Catalog number: 30776 Epoch time: 13227.35834436 Element set: 674 Inclination: 035.4295 deg RA of node: 198.9084 deg Eccentricity: 0.0000968 Arg of perigee: 167.7507 deg Mean anomaly: 316.6552 deg Mean motion: 15.11136821 rev/day Decay rate: 4.258e-05 rev/day^2 Epoch rev: 35437 Checksum: 320
Satellite: MAST Catalog number: 31126 Epoch time: 13226.49430075 Element set: 827 Inclination: 097.8852 deg RA of node: 219.1030 deg Eccentricity: 0.0092234 Arg of perigee: 230.1276 deg Mean anomaly: 277.1400 deg Mean motion: 14.54642719 rev/day Decay rate: 3.33e-06 rev/day^2 Epoch rev: 33579 Checksum: 281
Satellite: CAPE1 Catalog number: 31130 Epoch time: 13226.83386320 Element set: 830 Inclination: 097.9026 deg RA of node: 215.8018 deg Eccentricity: 0.0099233 Arg of perigee: 245.3685 deg Mean anomaly: 113.7151 deg Mean motion: 14.53581565 rev/day Decay rate: 3.97e-06 rev/day^2 Epoch rev: 33529 Checksum: 296
Satellite: COMPASS Catalog number: 32787 Epoch time: 13227.13804030 Element set: 702 Inclination: 097.7474 deg RA of node: 284.1657 deg Eccentricity: 0.0016182 Arg of perigee: 110.3473 deg Mean anomaly: 249.9483 deg Mean motion: 14.85736762 rev/day Decay rate: 1.749e-05 rev/day^2 Epoch rev: 28671 Checksum: 319
Satellite: AAUSAT2 Catalog number: 32788 Epoch time: 13226.11804004 Element set: 685 Inclination: 097.7487 deg RA of node: 283.8494 deg Eccentricity: 0.0015771 Arg of perigee: 112.6236 deg Mean anomaly: 247.6650 deg Mean motion: 14.86215055 rev/day Decay rate: 1.742e-05 rev/day^2 Epoch rev: 28660 Checksum: 314
Satellite: DO-64 Catalog number: 32789 Epoch time: 13227.25089369 Element set: 717 Inclination: 097.7648 deg RA of node: 289.0848 deg Eccentricity: 0.0015261 Arg of perigee: 102.1894 deg Mean anomaly: 298.8217 deg Mean motion: 14.89014194 rev/day Decay rate: 4.276e-05 rev/day^2 Epoch rev: 28691 Checksum: 363
Satellite: CO-66 Catalog number: 32791 Epoch time: 13226.41904644 Element set: 680 Inclination: 097.7477 deg RA of node: 282.7513 deg Eccentricity: 0.0016691 Arg of perigee: 113.7180 deg Mean anomaly: 009.4494 deg Mean motion: 14.84827783 rev/day Decay rate: 1.466e-05 rev/day^2 Epoch rev: 28651 Checksum: 337
Satellite: RS-30 Catalog number: 32953 Epoch time: 13227.46043722 Element set: 123 Inclination: 082.4989 deg RA of node: 031.3227 deg Eccentricity: 0.0019617 Arg of perigee: 102.7329 deg Mean anomaly: 257.5946 deg Mean motion: 12.43036053 rev/day Decay rate: 1.0e-07 rev/day^2 Epoch rev: 23727 Checksum: 278
Satellite: METEOR-M Catalog number: 35865 Epoch time: 13227.26528253 Element set: 717 Inclination: 098.5970 deg RA of node: 278.2228 deg Eccentricity: 0.0001626 Arg of perigee: 270.3434 deg Mean anomaly: 089.7557 deg Mean motion: 14.21890999 rev/day Decay rate: -3.2e-07 rev/day^2 Epoch rev: 20286 Checksum: 325
Satellite: RS-38 Catalog number: 35869 Epoch time: 13227.21797381 Element set: 670 Inclination: 098.5911 deg RA of node: 278.0753 deg Eccentricity: 0.0003793 Arg of perigee: 267.0220 deg Mean anomaly: 093.0516 deg Mean motion: 14.22140305 rev/day Decay rate: 1.4e-07 rev/day^2 Epoch rev: 20288 Checksum: 296
Satellite: JUGNU Catalog number: 37839 Epoch time: 13226.45761161 Element set: 441 Inclination: 019.9613 deg RA of node: 313.7131 deg Eccentricity: 0.0018789 Arg of perigee: 205.0878 deg Mean anomaly: 244.0786 deg Mean motion: 14.12172410 rev/day Decay rate: 3.93e-06 rev/day^2 Epoch rev: 9514 Checksum: 292
Satellite: SRMSAT Catalog number: 37841 Epoch time: 13225.61138985 Element set: 442 Inclination: 019.9721 deg RA of node: 332.0321 deg Eccentricity: 0.0011791 Arg of perigee: 146.1632 deg Mean anomaly: 334.9717 deg Mean motion: 14.10239700 rev/day Decay rate: 3.53e-06 rev/day^2 Epoch rev: 9488 Checksum: 282
Satellite: RAX-2 Catalog number: 37853 Epoch time: 13226.17355551 Element set: 567 Inclination: 101.7044 deg RA of node: 106.6955 deg Eccentricity: 0.0233525 Arg of perigee: 221.1196 deg Mean anomaly: 287.5976 deg Mean motion: 14.84055744 rev/day Decay rate: 3.070e-05 rev/day^2 Epoch rev: 9704 Checksum: 308
